Location: ??????
(38.5153°N, 23.0340°E)
Time: 12:57:26
(UTC+00:00)

Meteor 1-5 Rocket - Pass Details

Date: 13 December 2025
Orbit: 788 x 913 km, 81.2° (Epoch: 17 January)

Event Time Altitude Azimuth Distance (km) Brightness Sun altitude
Rises 16:11:01 0° 351° (N) 3,315 7.2 -12.1°
Reaches altitude 10° 16:13:23 10° 353° (N) 2,393 6.4 -12.6°
Maximum altitude 16:18:48 82° 81° (E) 835 4.1 -13.6°
Drops below altitude 10° 16:24:21 10° 169° (S) 2,452 6.7 -14.6°
Sets 16:26:47 0° 170° (S) 3,403 7.5 -15.0°
